Location: Arrodets-la-Barthe
(43.0306°N, 0.2829°E)
Time: 12:30:47
(UTC+00:00)

Lacrosse 4 Rocket - Pass Details

Date: 07 June 2022
Orbit: 541 x 611 km, 68.0° (Epoch: 03 July)

Event Time Altitude Azimuth Distance (km) Brightness Sun altitude
Exits shadow 00:36:43 29° 98° (E) 1,063 2.7 -23.6°
Drops below altitude 10° 00:39:54 10° 50° (NE) 1,864 4.7 -23.5°
Sets 00:42:17 0° 39° (NE) 2,753 5.9 -23.4°
